Edgbaston, United Kingdom

4:40 PM GMT on January 21, 2017 (GMT +0000)
Birmingham

Weather History for EGBB - May, 2013

Change the Weather History Date:

Monday, May 13, 2013

  Actual Average Record
Temperature  
Mean Temperature 48 °F -  
Max Temperature 53 °F 63 °F 73 °F (2001)
Min Temperature 41 °F 46 °F 32 °F (2012)
Degree Days  
Heating Degree Days 18    
Moisture  
Dew Point 39 °F    
Average Humidity 68    
Maximum Humidity 88    
Minimum Humidity 44    
Precipitation  
Precipitation 0.00 in 0.07 in - ()
Sea Level Pressure  
Sea Level Pressure 29.81 in    
Wind  
Wind Speed 12 mph ()    
Max Wind Speed 24 mph    
Max Gust Speed 32 mph    
Visibility 6.2 miles    
Events Rain    
Averages and records for this station are not official NWS values.
T = Trace of Precipitation, MM = Missing Value Source: Averaged Metar Reports

Daily Weather History Graph

Daily Weather History Graph

Search for Another Location

Airport or City:

Trip Planner

Search our weather history database for the weather conditions in past years. The results will help you decide how hot, cold, wet, or windy it might be!

Date:

Astronomy

May. 13, 2013 Rise Set
Actual Time 5:14 AM BST 8:53 PM BST
Civil Twilight 4:31 AM BST 9:36 PM BST
Nautical Twilight 3:33 AM BST 10:34 PM BST
Astronomical Twilight 2:02 AM BST 12:09 AM BST
Moon 7:43 AM BST (5/13) 11:53 PM BST (5/13)
Length of Visible Light 17h 04m
Length of Day
15h 39m
Waxing Crescent, 11% of the Moon is Illuminated
May 13
Waxing Crescent
May 18
First Quarter
May 25
Full
May 31
Last Quarter
Jun 8
New

Hourly Weather History & Observations

Time (BST) Temp. Windchill Dew Point Humidity Pressure Visibility Wind Dir Wind Speed Gust Speed Precip Events Conditions
12:20 AM 51.8 °F - 48.2 °F 88% 29.83 in 6.2 mi SW 10.4 mph - N/A   Scattered Clouds
12:50 AM 51.8 °F - 48.2 °F 88% 29.83 in 6.2 mi SW 10.4 mph - N/A   Scattered Clouds
1:20 AM 51.8 °F - 48.2 °F 88% 29.83 in 6.2 mi SW 10.4 mph - N/A   Scattered Clouds
1:50 AM 51.8 °F - 48.2 °F 88% 29.83 in 6.2 mi SW 9.2 mph - N/A   Partly Cloudy
2:20 AM 51.8 °F - 46.4 °F 82% 29.83 in 6.2 mi WSW 11.5 mph - N/A   Mostly Cloudy
2:50 AM 50.0 °F - 41.0 °F 71% 29.83 in 6.2 mi West 11.5 mph - N/A   Mostly Cloudy
3:20 AM 50.0 °F - 41.0 °F 71% 29.83 in 6.2 mi WSW 10.4 mph - N/A   Mostly Cloudy
3:50 AM 50.0 °F - 42.8 °F 76% 29.83 in 6.2 mi West 13.8 mph - N/A   Scattered Clouds
4:20 AM 50.0 °F - 39.2 °F 66% 29.83 in 6.2 mi West 16.1 mph 27.6 mph N/A   Mostly Cloudy
4:50 AM 48.2 °F - 35.6 °F 62% 29.83 in - West 13.8 mph - N/A   Clear
5:20 AM 48.2 °F - 35.6 °F 62% 29.83 in - West 11.5 mph - N/A   Clear
5:50 AM 46.4 °F 41.1 °F 37.4 °F 71% 29.83 in - West 11.5 mph - N/A   Clear
6:20 AM 46.4 °F 41.9 °F 37.4 °F 71% 29.83 in - West 9.2 mph - N/A   Clear
6:50 AM 46.4 °F 41.1 °F 37.4 °F 71% 29.86 in - West 11.5 mph - N/A   Clear
7:20 AM 48.2 °F - 37.4 °F 66% 29.86 in 6.2 mi West 12.7 mph - N/A   Partly Cloudy
7:50 AM 48.2 °F - 37.4 °F 66% 29.86 in 6.2 mi West 12.7 mph - N/A   Scattered Clouds
8:20 AM 48.2 °F - 37.4 °F 66% 29.86 in 6.2 mi West 17.3 mph - N/A   Partly Cloudy
8:50 AM 48.2 °F - 35.6 °F 62% 29.86 in 6.2 mi West 16.1 mph - N/A   Scattered Clouds
9:20 AM 50.0 °F - 35.6 °F 58% 29.86 in 6.2 mi West 18.4 mph - N/A   Scattered Clouds
9:50 AM 46.4 °F 40.4 °F 39.2 °F 76% 29.86 in 6.2 mi West 13.8 mph - N/A   Scattered Clouds
10:20 AM 50.0 °F - 37.4 °F 62% 29.83 in 6.2 mi West 19.6 mph 31.1 mph N/A   Mostly Cloudy
10:50 AM 53.6 °F - 39.2 °F 58% 29.83 in 6.2 mi West 17.3 mph 32.2 mph N/A Rain Light Rain
11:20 AM 48.2 °F - 42.8 °F 82% 29.83 in 6.2 mi WSW 19.6 mph - N/A   Mostly Cloudy
11:50 AM 53.6 °F - 39.2 °F 58% 29.83 in 6.2 mi WSW 19.6 mph - N/A   Scattered Clouds
12:20 PM 51.8 °F - 35.6 °F 54% 29.83 in 6.2 mi West 16.1 mph - N/A   Scattered Clouds
12:50 PM 50.0 °F - 37.4 °F 62% 29.83 in 6.2 mi West 24.2 mph - N/A Rain Rain Showers
1:20 PM 51.8 °F - 41.0 °F 67% 29.80 in 6.2 mi WSW 18.4 mph - N/A   Scattered Clouds
1:50 PM 51.8 °F - 37.4 °F 58% 29.80 in 6.2 mi West 17.3 mph - N/A Rain Light Rain Showers
2:20 PM 53.6 °F - 33.8 °F 47% 29.80 in 6.2 mi West 19.6 mph - N/A Rain Light Rain Showers
2:50 PM 53.6 °F - 37.4 °F 54% 29.77 in 6.2 mi WNW 15.0 mph - N/A   Scattered Clouds
3:20 PM 53.6 °F - 32.0 °F 44% 29.77 in 6.2 mi WSW 19.6 mph - N/A   Scattered Clouds
3:50 PM 53.6 °F - 37.4 °F 54% 29.77 in 6.2 mi West 18.4 mph - N/A   Scattered Clouds
4:20 PM 51.8 °F - 37.4 °F 58% 29.77 in 6.2 mi WSW 16.1 mph 28.8 mph N/A Rain Light Rain Showers
4:50 PM 50.0 °F - 39.2 °F 66% 29.77 in 6.2 mi SW 15.0 mph - N/A   Scattered Clouds
5:20 PM 51.8 °F - 39.2 °F 62% 29.74 in 6.2 mi WSW 15.0 mph - N/A   Scattered Clouds
5:50 PM 51.8 °F - 39.2 °F 62% 29.74 in 6.2 mi WNW 16.1 mph 28.8 mph N/A Rain Light Rain Showers
6:20 PM 50.0 °F - 37.4 °F 62% 29.77 in 6.2 mi West 16.1 mph - N/A   Scattered Clouds
6:50 PM 50.0 °F - 37.4 °F 62% 29.74 in 6.2 mi West 17.3 mph - N/A   Scattered Clouds
7:20 PM 50.0 °F - 39.2 °F 66% 29.74 in 6.2 mi WSW 12.7 mph - N/A   Scattered Clouds
7:50 PM 50.0 °F - 33.8 °F 54% 29.77 in 6.2 mi West 18.4 mph - N/A   Scattered Clouds
8:20 PM 46.4 °F 38.7 °F 35.6 °F 66% 29.77 in 6.2 mi West 20.7 mph 32.2 mph N/A Rain Rain Showers
8:50 PM 44.6 °F 38.8 °F 37.4 °F 76% 29.77 in 6.2 mi West 11.5 mph - N/A   Scattered Clouds
9:20 PM 42.8 °F 37.5 °F 37.4 °F 81% 29.77 in 6.2 mi WSW 9.2 mph - N/A   Partly Cloudy
9:50 PM 44.6 °F 38.8 °F 37.4 °F 76% 29.77 in - West 11.5 mph - N/A   Clear
10:20 PM 42.8 °F 37.5 °F 37.4 °F 81% 29.77 in - West 9.2 mph - N/A   Clear
10:50 PM 42.8 °F 37.5 °F 35.6 °F 76% 29.77 in - WSW 9.2 mph - N/A   Clear
11:20 PM 42.8 °F 37.5 °F 35.6 °F 76% 29.77 in - SW 9.2 mph - N/A   Clear
11:50 PM 41.0 °F 35.8 °F 35.6 °F 81% 29.74 in - SSW 8.1 mph - N/A   Clear